Weather Roundup
Issued by NWS Chicago, IL

Home | Current Version | Previous Version | Graphics & Text | Print | Product List | Glossary On
Versions: 1 2 3 4 5 6 7 8 9 10 11 12 13 14 15 16 17 18 19 20 21 22 23 24 25 26 27 28 29 30 31 32 33 34 35 36 37 38 39 40 41 42 43 44 45 46 47 48 49 50
000
NZUS59 KLOT 030612
HRRLOT

CHICAGO AREA WEATHER ROUNDUP
NATIONAL WEATHER SERVICE CHICAGO/ROMEOVILLE IL
100 AM CDT WED JUN 03 2015

NOTE: "FAIR" INDICATES FEW OR NO CLOUDS BELOW 12,000 FEET WITH NO
SIGNIFICANT WEATHER AND/OR OBSTRUCTIONS TO VISIBILITY.

* THESE STATIONS ARE NOT UNDER NWS QUALITY CONTROL. THEY ALSO MAY NOT
  REPORT WEATHER SUCH AS PRECIPITATION OR FOG.

ILZ005-006-012>014-019>023-030700-
NORTHEAST ILLINOIS

CITY           SKY/WX    TMP DP  RH WIND       PRES   REMARKS
OHARE          PTCLDY    54  44  69 SE6       30.09S
6HR MIN TEMP:  52; 6HR MAX TEMP:  68;

MIDWAY         MOCLDY    57  47  69 E5        30.09F
6HR MIN TEMP:  57; 6HR MAX TEMP:  66;

AURORA         CLEAR     55  46  71 E5        30.09S
6HR MIN TEMP:  54; 6HR MAX TEMP:  71;

LANSING*       CLEAR     50  45  82 CALM      30.09F
JOLIET*        CLEAR     56  50  80 CALM      30.09S
WAUKEGAN       CLEAR     50  44  80 S5        30.09S
6HR MIN TEMP:  45; 6HR MAX TEMP:  60;

DUPAGE AIRPORT CLEAR     55  45  68 SE6       30.08S
6HR MIN TEMP:  54; 6HR MAX TEMP:  70;

WHEELING       CLEAR     52  45  77 CALM      30.11S
6HR MIN TEMP:  51; 6HR MAX TEMP:  64;

KANKAKEE*      CLEAR     58  53  83 SE6       30.08F
MORRIS*        CLEAR     55  49  80 E5        30.06S
LEWIS AIRPORT* CLEAR     53  46  77 E5        30.09S
NORTHERLY IS     N/A     53  48  83 CALM        N/A
$$

WIZ051-052-058>065-066-070>072-030700-
SOUTHEAST WISCONSIN

CITY           SKY/WX    TMP DP  RH WIND       PRES   REMARKS
MILWAUKEE      MOCLDY    51  43  74 S6        30.10S
6HR MIN TEMP:  50; 6HR MAX TEMP:  59;

KENOSHA*       CLEAR     50  44  80 S5        30.09F
RACINE*        CLEAR     50  42  74 S6        30.11S
BURLINGTON     CLEAR     46  43  91 CALM      30.09S
WAUKESHA       CLEAR     46  43  87 SE3       30.10S
WEST BEND      CLEAR     46  43  87 CALM      30.09S
$$

INZ001>003-010>013-019-020-030700-
NORTHWEST INDIANA

CITY           SKY/WX    TMP DP  RH WIND       PRES   REMARKS
GARY*          CLEAR     51  50  96 CALM      30.10S
6HR MIN TEMP:  50; 6HR MAX TEMP:  61;

MICHIGAN CITY* NOT AVBL
RENSSELAER*    NOT AVBL
VALPARAISO     CLEAR     52  49  89 E3        30.11S
$$

LMZ740>746-030700-
SOUTHERN LAKE MICHIGAN

STATION/POSITION TIME  SKY/WX   TEMP WIND        PRES    VSBY
                                AIR  DIR/SP/G
                 (UTC)          (F)  (DEG/KT/KT) (MB)    (MI)
HARRISON CRIB    0500            53  160/  4/  6   N/A
BURNHAM HARBOR   0600            52   CALM  /  3   N/A
CALUMET HARBOR   0500            56   80/  3/  5   N/A
BURNS HARBOR     0500                 80/  4/  6 1019.6F
MICHIGAN CITY    0500            57   90/  6/  7   N/A
$$

ABBREVIATIONS USED IN REMARKS
   TC - TEMPERATURE IN CELSIUS
  WCI - WIND CHILL INDEX
   HX - HEAT INDEX
  VSB - VISIBILITY
$$


USA.gov is the U.S. government's official web portal to all federal, state and local government web resources and services.